Wind_Speed
51 49 48 46 44 43 41 40 39 37 36 35 33 32 31 29 28 27 27 26 26 26 25 25 26 26 27 27 28 29 29 30 31 32 33 34 35 36 37 38 39 40 40
54 52 51 49 48 45 43 41 40 39 38 36 35 33 32 31 30 28 27 27 27 27 26 26 26 27 28 29 29 30 30 31 32 32 34 35 36 37 38 39 40 41 41
56 55 53 51 50 47 45 44 42 41 39 38 36 34 32 31 30 29 28 28 28 27 27 27 27 28 29 30 30 31 31 32 32 34 35 36 37 38 39 40 41 41 42
58 57 55 52 51 49 47 45 43 42 41 39 37 35 34 32 31 30 29 29 29 29 29 28 29 29 30 31 31 32 32 33 34 35 36 37 38 39 40 41 41 42 43
59 58 56 54 52 51 49 47 44 42 41 40 39 37 35 33 32 31 30 30 30 29 29 29 30 30 31 32 32 33 33 34 35 36 37 38 39 40 41 42 42 43 44
61 60 58 56 53 52 50 48 46 44 42 41 40 38 37 35 34 32 31 31 30 30 30 30 31 31 32 33 33 33 34 34 35 37 38 39 40 41 42 43 43 44 45
61 60 59 58 55 53 51 49 47 45 43 41 41 39 37 36 35 33 32 31 31 31 31 31 32 33 33 33 34 34 34 35 36 37 38 39 40 41 42 43 44 45 47
61 59 59 58 57 54 52 51 49 47 44 42 41 40 38 37 36 34 33 32 32 32 32 33 33 33 33 34 33 34 35 36 37 38 39 40 41 42 43 44 45 46 48
62 61 59 59 58 55 52 51 49 47 45 44 43 41 39 37 36 35 34 33 33 33 33 33 33 34 34 34 34 35 36 37 38 39 40 41 42 43 44 45 46 47 48
62 62 60 60 59 57 53 52 50 48 48 46 45 42 39 37 37 36 35 34 34 34 34 34 34 34 34 34 35 36 36 37 38 40 41 41 42 43 44 45 46 48 49
61 60 59 59 59 57 54 52 50 48 47 45 44 43 41 39 37 36 35 35 35 35 35 34 34 34 34 35 36 36 37 38 39 40 41 42 43 44 45 46 47 49 50
59 60 59 58 58 57 56 52 49 47 47 45 44 43 41 40 38 37 36 35 35 35 35 35 34 34 34 35 36 37 37 38 40 41 41 42 43 44 45 46 48 50 52
58 59 59 59 58 57 56 55 51 47 47 45 44 43 42 40 39 38 37 35 34 34 34 35 35 34 34 35 36 36 37 39 40 41 41 42 43 45 46 48 49 51 53
55 58 59 59 59 59 57 56 53 47 46 45 44 43 41 40 38 37 36 35 34 34 34 34 35 34 34 34 35 37 38 38 39 40 41 42 44 46 47 48 50 52 54
54 56 56 58 58 57 55 55 54 48 45 44 43 42 40 38 37 37 36 35 34 33 33 34 34 34 34 34 36 37 37 38 39 40 41 43 45 46 47 49 51 53 55
51 53 53 56 56 56 55 53 52 51 47 44 43 41 39 38 37 36 35 35 34 34 33 33 33 34 34 35 36 37 37 38 39 40 42 43 45 47 48 50 52 54 56
50 51 53 54 54 55 53 51 50 50 48 44 42 41 40 38 37 36 35 34 33 33 33 33 33 34 34 35 35 36 37 37 39 40 42 44 46 48 49 51 53 55 56
49 50 51 53 52 51 51 50 48 48 47 43 41 40 38 37 36 35 34 33 32 32 32 32 33 33 34 34 34 36 36 38 39 41 43 44 46 48 50 51 54 55 56
48 48 50 52 51 49 49 48 47 45 44 43 41 39 37 36 35 34 32 32 31 32 32 32 32 33 33 34 35 36 37 38 39 42 43 45 47 49 50 52 54 55 56
46 45 46 48 50 49 47 46 44 42 42 40 39 38 36 35 34 32 31 31 31 31 32 32 33 33 33 34 34 35 36 38 40 42 43 45 47 49 50 52 53 55 55
46 45 43 44 47 47 46 45 43 41 40 39 37 36 35 34 32 32 31 31 30 31 31 31 32 33 33 33 34 35 36 38 40 42 44 46 48 49 50 51 53 54 55
45 45 42 41 44 45 45 45 44 40 38 37 36 35 35 34 32 32 31 30 30 31 31 31 31 32 33 33 33 34 36 38 40 43 44 46 47 48 50 52 53 54 55
45 45 43 42 43 44 45 44 42 39 38 37 36 35 34 33 32 31 30 30 30 31 30 31 32 32 32 32 33 34 36 38 41 43 44 45 47 48 50 51 52 53 54
43 45 43 42 42 43 44 42 43 40 38 37 36 35 34 33 32 31 30 30 31 30 30 31 31 32 31 31 33 34 36 39 41 42 43 45 47 48 50 52 52 53 53
42 44 43 42 42 42 43 43 42 41 39 37 36 35 34 34 33 31 30 30 30 30 30 30 30 30 31 32 33 35 37 39 40 42 43 45 47 48 50 52 52 52 52
40 43 43 43 43 42 42 43 42 39 38 37 37 36 35 35 34 32 31 30 29 29 29 29 30 31 31 32 34 35 37 39 40 42 44 46 47 48 49 50 51 51 52
Wind_Direction
240 239 239 240 241 243 243 245 246 247 249 250 252 255 257 258 260 264 267 270 273 275 278 281 285 288 291 294 296 298 300 302 304 306 308 309 311 313 315 316 317 317 318
239 238 238 238 240 241 242 243 245 246 248 249 251 253 256 258 260 262 266 269 272 274 277 280 284 288 291 295 296 297 299 301 304 306 308 309 311 313 315 315 316 317 317
237 236 237 237 238 238 240 241 242 245 247 248 250 252 255 257 259 262 265 268 271 273 276 279 283 288 292 295 296 297 298 301 303 305 307 309 311 313 314 315 315 316 317
235 235 235 236 237 237 239 240 241 243 245 247 249 251 253 255 258 262 265 267 270 273 275 279 283 287 291 295 297 297 298 300 302 305 307 309 311 312 313 314 315 316 316
233 233 233 234 235 236 237 238 239 241 242 245 247 249 251 254 257 260 263 266 270 272 275 279 283 286 290 294 296 297 298 300 302 304 306 308 310 312 313 314 315 315 316
231 231 231 232 234 234 235 237 237 239 241 244 245 248 250 253 256 259 262 265 268 271 275 279 283 286 289 293 296 297 298 300 302 304 306 308 310 311 312 313 314 315 315
229 229 229 230 232 233 234 235 236 238 240 242 245 246 249 252 254 257 260 264 267 270 274 278 282 285 288 292 295 296 298 300 302 304 306 308 309 311 312 313 313 314 315
226 226 227 228 229 231 232 234 235 237 239 241 244 246 248 251 253 256 260 263 266 270 274 278 282 285 288 291 293 296 298 300 302 304 306 308 309 310 311 312 313 314 315
225 224 226 227 227 229 230 233 234 237 238 240 243 245 247 250 254 257 260 263 267 270 274 277 282 285 287 289 292 294 297 300 303 305 306 307 308 310 311 312 313 314 314
225 224 225 225 226 227 229 232 234 236 238 241 243 244 246 250 253 257 260 263 267 270 273 277 280 284 286 289 291 294 296 299 302 304 305 307 308 309 311 312 313 314 314
224 223 223 224 225 225 228 231 232 234 237 239 242 244 246 250 253 257 260 263 266 269 273 276 279 283 286 288 291 293 296 299 301 303 305 306 308 309 311 312 312 313 314
222 221 222 224 224 225 227 229 231 234 236 238 241 243 246 249 253 256 259 263 266 269 272 275 278 281 285 288 290 293 296 299 301 303 305 307 308 309 310 311 312 313 314
220 221 221 222 223 223 225 228 230 234 234 236 240 243 246 249 253 255 258 262 265 269 272 275 277 280 284 287 290 293 296 299 301 303 305 307 308 309 311 312 313 315 316
219 219 220 221 222 223 225 228 230 232 233 236 239 242 245 249 252 255 257 261 265 268 272 275 278 281 284 287 290 293 296 300 302 303 305 307 308 310 311 312 314 315 316
219 219 220 220 221 222 225 227 228 230 232 235 237 240 243 247 250 253 256 260 264 268 271 274 277 280 284 287 291 293 296 299 301 303 306 307 309 311 312 313 315 316 317
219 219 219 220 221 221 223 226 228 231 232 235 236 238 242 245 247 251 255 259 263 266 270 274 277 281 284 287 290 293 296 300 302 304 306 308 310 311 312 314 315 316 317
219 219 220 220 221 222 224 226 229 231 233 235 236 238 240 242 246 250 254 258 262 266 270 274 278 282 286 288 290 293 296 299 302 305 307 308 310 312 313 314 316 317 318
218 219 221 220 220 222 224 225 228 231 232 233 236 237 238 242 246 249 253 257 261 265 269 274 279 283 286 288 291 294 296 300 304 306 308 309 311 313 313 315 316 317 318
217 219 221 220 220 222 224 225 226 229 230 232 234 234 238 242 245 248 252 256 260 264 268 274 279 283 285 288 292 294 298 302 305 307 309 310 312 313 314 315 317 318 319
215 216 218 220 221 221 222 224 224 226 228 230 232 234 237 240 244 247 251 255 260 265 269 274 279 282 285 289 292 295 298 302 305 308 309 311 312 313 315 317 318 319 320
215 217 218 219 219 218 220 223 224 227 228 229 231 233 235 238 242 245 250 256 260 264 270 275 279 282 286 289 293 296 299 303 306 309 310 311 313 314 316 318 319 320 321
218 219 220 219 218 218 219 223 224 227 227 227 229 231 235 239 242 246 251 255 260 265 270 274 278 282 286 289 294 298 301 304 306 309 311 312 314 316 318 319 320 321 322
221 221 220 219 217 218 220 222 222 224 225 225 228 232 235 239 243 246 249 254 261 266 269 274 279 282 286 289 294 299 301 304 307 310 311 313 315 317 319 320 321 322 323
220 219 218 220 218 218 219 219 220 221 223 225 228 232 235 239 242 245 249 255 261 265 270 274 279 282 285 290 294 298 301 305 308 310 312 314 316 318 319 321 322 323 323
218 217 218 220 218 217 218 219 220 220 222 225 228 232 234 238 240 245 249 255 259 265 270 276 279 281 285 290 294 297 301 305 308 311 312 314 317 318 320 322 323 324 324
216 217 219 219 217 217 218 219 219 221 223 225 228 231 234 239 243 245 250 255 260 265 271 275 278 281 285 289 294 298 302 304 307 310 313 315 317 319 321 322 323 324 325
Height
5782 5786 5790 5794 5798 5802 5805 5809 5812 5814 5817 5819 5822 5824 5825 5826 5827 5827 5828 5828 5827 5827 5826 5826 5825 5823 5822 5820 5818 5816 5813 5810 5808 5804 5801 5797 5793 5789 5785 5780 5775 5770 5766
5771 5776 5781 5785 5789 5794 5797 5801 5804 5807 5810 5812 5815 5817 5819 5820 5821 5822 5822 5822 5822 5822 5821 5820 5819 5818 5816 5815 5812 5810 5808 5805 5802 5799 5795 5791 5787 5783 5778 5774 5769 5764 5759
5759 5765 5770 5775 5780 5784 5788 5792 5796 5799 5802 5805 5808 5810 5813 5814 5815 5816 5816 5817 5817 5816 5816 5815 5814 5813 5811 5809 5807 5805 5802 5799 5796 5793 5789 5785 5781 5777 5772 5767 5762 5757 5751
5747 5753 5759 5764 5770 5775 5779 5784 5788 5791 5794 5798 5801 5803 5806 5808 5809 5810 5810 5811 5811 5811 5810 5810 5809 5807 5805 5803 5801 5799 5796 5793 5790 5787 5783 5779 5775 5770 5765 5760 5755 5749 5744
5733 5741 5747 5753 5758 5764 5769 5774 5779 5782 5786 5790 5793 5796 5799 5801 5802 5803 5804 5805 5805 5805 5804 5804 5803 5801 5800 5797 5795 5793 5790 5787 5784 5780 5777 5772 5768 5763 5758 5753 5748 5742 5736
5719 5727 5735 5741 5747 5754 5760 5765 5770 5774 5778 5782 5785 5788 5791 5794 5795 5797 5798 5798 5799 5799 5798 5797 5796 5795 5793 5791 5789 5787 5784 5781 5777 5774 5770 5765 5761 5756 5751 5745 5740 5734 5729
5706 5714 5722 5730 5737 5744 5750 5755 5761 5765 5770 5773 5777 5780 5783 5786 5788 5790 5791 5792 5792 5792 5792 5791 5790 5789 5787 5785 5783 5780 5777 5774 5771 5767 5763 5758 5754 5748 5743 5738 5732 5726 5720
5692 5701 5709 5718 5726 5733 5739 5745 5751 5756 5761 5765 5770 5773 5775 5778 5780 5782 5784 5785 5785 5785 5785 5784 5783 5782 5781 5778 5776 5773 5771 5767 5764 5760 5755 5751 5746 5741 5736 5730 5724 5718 5712
5679 5689 5698 5706 5715 5722 5730 5736 5742 5748 5752 5757 5761 5766 5768 5771 5774 5775 5777 5778 5778 5778 5778 5777 5776 5775 5773 5772 5769 5767 5763 5760 5756 5752 5748 5743 5738 5733 5728 5722 5716 5710 5703
5667 5677 5686 5694 5703 5712 5720 5726 5733 5739 5744 5748 5752 5757 5762 5765 5767 5768 5769 5770 5771 5771 5771 5770 5769 5768 5766 5764 5762 5759 5756 5753 5749 5745 5740 5735 5730 5725 5719 5713 5707 5701 5694
5654 5664 5674 5683 5692 5701 5710 5717 5723 5729 5735 5739 5744 5748 5752 5756 5759 5761 5762 5763 5763 5763 5763 5763 5762 5761 5759 5757 5754 5752 5749 5745 5741 5737 5732 5727 5722 5717 5711 5705 5699 5692 5685
5643 5653 5663 5672 5682 5691 5700 5708 5714 5720 5725 5731 5735 5739 5743 5747 5750 5753 5754 5754 5755 5756 5756 5755 5754 5753 5751 5749 5747 5744 5741 5737 5733 5729 5724 5719 5714 5708 5702 5696 5690 5683 5676
5633 5643 5652 5662 5671 5681 5689 5697 5704 5710 5716 5721 5727 5731 5735 5739 5741 5744 5745 5746 5747 5748 5748 5748 5747 5745 5744 5742 5739 5736 5733 5730 5726 5721 5716 5711 5706 5700 5694 5688 5681 5674 5666
5623 5632 5643 5652 5661 5670 5678 5687 5694 5700 5706 5712 5718 5722 5726 5730 5733 5735 5737 5739 5740 5740 5740 5740 5739 5738 5736 5734 5731 5729 5725 5722 5718 5713 5708 5703 5697 5691 5685 5678 5671 5664 5656
5613 5622 5633 5642 5651 5660 5668 5677 5684 5690 5697 5703 5709 5714 5718 5721 5724 5727 5729 5731 5732 5732 5732 5732 5731 5730 5728 5726 5723 5721 5717 5714 5710 5705 5700 5695 5689 5683 5676 5669 5662 5654 5646
5604 5614 5623 5633 5642 5650 5659 5667 5674 5681 5688 5694 5699 5704 5709 5712 5716 5718 5721 5723 5724 5724 5724 5724 5723 5722 5720 5718 5716 5713 5709 5706 5701 5697 5692 5686 5680 5674 5667 5660 5652 5644 5635
5596 5605 5614 5623 5633 5641 5649 5657 5665 5672 5679 5684 5690 5695 5700 5704 5707 5710 5712 5714 5716 5716 5717 5716 5715 5714 5712 5710 5708 5705 5701 5698 5693 5688 5683 5678 5672 5665 5658 5651 5643 5634 5625
5588 5597 5606 5615 5624 5632 5639 5648 5656 5663 5669 5676 5682 5687 5692 5695 5699 5702 5704 5706 5708 5709 5709 5709 5708 5706 5705 5702 5700 5697 5693 5689 5685 5680 5675 5669 5663 5656 5649 5641 5633 5624 5615
5580 5589 5597 5606 5614 5623 5631 5639 5647 5654 5661 5667 5673 5679 5684 5687 5691 5694 5697 5698 5700 5701 5701 5701 5700 5699 5697 5694 5692 5689 5685 5681 5676 5671 5666 5660 5654 5647 5639 5631 5623 5614 5604
5572 5581 5589 5597 5606 5615 5623 5630 5638 5645 5652 5659 5665 5670 5675 5679 5683 5686 5689 5691 5692 5693 5693 5693 5692 5691 5689 5686 5684 5681 5677 5673 5668 5663 5657 5651 5645 5637 5630 5622 5613 5604 5594
5565 5573 5581 5588 5597 5605 5614 5622 5630 5637 5644 5651 5657 5662 5667 5671 5675 5678 5681 5683 5685 5685 5686 5685 5685 5683 5681 5679 5676 5673 5669 5665 5660 5655 5649 5642 5636 5629 5621 5612 5603 5594 5584
5558 5565 5573 5580 5588 5597 5606 5613 5621 5628 5636 5642 5649 5654 5659 5663 5667 5670 5673 5676 5677 5678 5678 5678 5677 5676 5673 5671 5668 5665 5661 5657 5653 5648 5641 5633 5626 5619 5611 5603 5594 5584 5575
5551 5558 5566 5573 5581 5589 5598 5605 5613 5620 5628 5634 5641 5646 5651 5655 5659 5662 5665 5668 5669 5670 5670 5671 5670 5668 5666 5664 5661 5658 5653 5649 5644 5638 5632 5625 5617 5609 5601 5593 5584 5575 5565
5543 5550 5558 5565 5573 5581 5589 5597 5605 5612 5620 5627 5633 5638 5643 5648 5652 5655 5658 5660 5661 5662 5663 5663 5662 5660 5658 5656 5653 5650 5646 5641 5635 5630 5623 5617 5609 5600 5592 5583 5575 5565 5556
5536 5543 5550 5558 5566 5574 5582 5589 5597 5604 5612 5619 5625 5631 5636 5640 5644 5647 5650 5652 5654 5654 5655 5654 5653 5652 5650 5648 5645 5642 5638 5633 5627 5621 5615 5608 5601 5593 5583 5574 5565 5556 5547
5529 5536 5543 5551 5559 5567 5574 5582 5589 5597 5604 5611 5617 5623 5628 5632 5636 5639 5642 5644 5646 5647 5647 5647 5646 5644 5642 5640 5637 5634 5630 5625 5619 5613 5607 5600 5592 5584 5576 5566 5556 5547 5538